{"data":{"norad_id":53232,"epoch":"2026-05-25T03:22:52.762080Z","epoch_age_seconds":65972,"freshness":"FRESH","line1":"1 53232U 22084AV  26145.14088845  .00000446  00000+0  34963-4 0  9999","line2":"2 53232  97.4505 205.0569 0000691  30.9408 329.1860 15.05652922210812","mean_motion":15.05652922,"eccentricity":6.91e-5,"inclination_deg":97.4505,"raan_deg":205.0569,"arg_perigee_deg":30.9408,"mean_anomaly_deg":329.186,"bstar":3.4963e-5,"rev_number":21081,"period_min":95.639571308852,"perigee_km":549.02349124019,"apogee_km":549.9808909764,"semimajor_km":6927.6391911083,"source":"CELESTRAK","updated_at":"2026-05-25T13:38:17.358737Z"}}